sat.trackr.live / text

‹ back to catalog

STARLINK-4170

NORAD 53140 · 2022-083J

PAYLOAD ACTIVE UNKNOWN

§ Identity

Operator
Country
US
Launch date
2022-07-17
Launch site
AFETR
Launch vehicle
Mass (kg)
RCS (m²)

Purposes: comms

External: N2YO · Heavens-Above · Gunter

§ Orbital elements

Epoch: 2026-05-24T20:09:11.282688Z

Period
95.44 min
Inclination
53.2136°
Eccentricity
0.0001496
Mean motion
15.08827197 rev/d
Perigee alt
538.7 km
Apogee alt
540.8 km
Semi-major
6,917.9 km
B*
1.0965e-4
RAAN
192.2686°
Arg perigee
95.2383°
Mean anomaly
264.8780°
Rev number
21,271

§ Raw data

STARLINK-41701 53140U 22083J   26144.83971392  .00001457  00000+0  10965-3 0  99972 53140  53.2136 192.2686 0001496  95.2383 264.8780 15.08827197212715

JSON: /api/v1/satellites/53140 · /tle

For live sub-satellite position, see the globe view (requires WebGL).

§ Visibility from observer

Set your observer location to see the next 7 days of passes ≥ 10°. The values pass through the URL so the page stays shareable.

No JS? Fill the form by hand. The geolocation button needs JavaScript.